This is the latest recevied weather packets stored in our database for station/object F1ZTH-10. If no packets are shown the sender has not sent any weather packets the latest 10 day(s).
| Time | Temp. | Humidity | Pressure | Rain* | Wind** | Luminosity | Snow |
|---|---|---|---|---|---|---|---|
| 1777980479 | 20.56° C | 77% | 970 hPa | - | - | - | - |
| 1777979579 | 20° C | 78% | 971 hPa | - | - | - | - |
| 1777978679 | 18.33° C | 81% | 971 hPa | - | - | - | - |
| 1777978679 | 18.33° C | 81% | 971 hPa | - | - | - | - |
| 1777977779 | 18.33° C | 83% | 971 hPa | - | - | - | - |
| 1777976879 | 18.33° C | 82% | 971 hPa | - | - | - | - |
| 1777975979 | 16.11° C | 87% | 971 hPa | - | - | - | - |
| 1777975079 | 14.44° C | 90% | 971 hPa | - | - | - | - |
| 1777974179 | 13.89° C | 90% | 971 hPa | - | - | - | - |
| 1777973279 | 13.33° C | 91% | 971 hPa | - | - | - | - |
| 1777972379 | 12.22° C | 92% | 971 hPa | - | - | - | - |
| 1777971479 | 12.22° C | 92% | 971 hPa | - | - | - | - |
| 1777970579 | 12.22° C | 92% | 971 hPa | - | - | - | - |
| 1777969679 | 11.67° C | 92% | 970 hPa | - | - | - | - |
| 1777968779 | 11.67° C | 92% | 971 hPa | - | - | - | - |
| 1777967879 | 11.67° C | 92% | 970 hPa | - | - | - | - |
| 1777966978 | 11.11° C | 92% | 970 hPa | - | - | - | - |
| 1777966078 | 11.11° C | 92% | 970 hPa | - | - | - | - |
| 1777965178 | 11.11° C | 92% | 970 hPa | - | - | - | - |
| 1777964278 | 11.11° C | 92% | 970 hPa | - | - | - | - |
| 1777963378 | 11.11° C | 92% | 970 hPa | - | - | - | - |
| 1777962478 | 11.11° C | 92% | 970 hPa | - | - | - | - |
| 1777961578 | 11.11° C | 92% | 970 hPa | - | - | - | - |
| 1777960678 | 11.11° C | 92% | 970 hPa | - | - | - | - |
| 1777959778 | 11.11° C | 92% | 970 hPa | - | - | - | - |
* Rain since midnight (hover to see other rain measurements)
** Current wind speed in m/s (hover to see current wind gust speed)